Zurück zum Katalog

COSMOS 2251 DEB

AktivLEO
NORAD 33912·DEBRIS·🇷🇺 Russia

Gestartet Jun 16, 1993 von Plesetsk Cosmodrome

Loading…

Nächste Überflüge (nächste 24 Stunden)

TLE

AktuellSource: Space-Track

Epoche: Sep 14, 2026, 07:42 UTC

1 33912U 93036DR  26257.32151625  .00001700  00000-0  41554-3 0  9996
2 33912  74.0344  29.8824 0010737  40.2256 342.4857 14.53317006924358

Verfolge COSMOS 2251 DEB in Echtzeit mit AllMySat

Download on the App Store